SAS1612 ESGG-EKCH

Flight info

Callsign SAS1612
Flight time 0h 25m
Altitude 19000
Route TOPLA L996 ERNOV
Aircraft A320/M-SDE3FGHIRWY/LB1

Departure

Time 2026-05-04 13:48
Airport Göteborg Landvetter Airport (ESGG)

Arrival

Time 2026-05-04 14:14
Airport Copenhagen Kastrup Airport (EKCH)
Time Latitude Longitude Altitude Speed Heading
2026-05-04 13:11 57.66849 12.29374 516 ft 0 kts 116°
2026-05-04 13:37 57.66849 12.29371 516 ft 2 kts 116°
2026-05-04 13:38 57.66858 12.29334 503 ft 2 kts 108°
2026-05-04 13:38 57.66862 12.29304 516 ft 2 kts 94°
2026-05-04 13:38 57.66862 12.29274 516 ft 2 kts 73°
2026-05-04 13:38 57.66855 12.29246 516 ft 2 kts 43°
2026-05-04 13:39 57.66844 12.29228 516 ft 1 kts 26°
2026-05-04 13:39 57.66841 12.29225 516 ft 0 kts 26°
2026-05-04 13:42 57.66854 12.29237 516 ft 4 kts 26°
2026-05-04 13:42 57.66895 12.29276 516 ft 9 kts 26°
2026-05-04 13:42 57.66956 12.29331 516 ft 8 kts 26°
2026-05-04 13:42 57.66991 12.29279 516 ft 9 kts 291°
2026-05-04 13:43 57.67027 12.29188 516 ft 9 kts 336°
2026-05-04 13:43 57.67071 12.29209 516 ft 11 kts 27°
2026-05-04 13:43 57.67177 12.29307 516 ft 15 kts 26°
2026-05-04 13:43 57.67275 12.29396 516 ft 16 kts 26°
2026-05-04 13:44 57.67366 12.29479 516 ft 13 kts 26°
2026-05-04 13:44 57.67424 12.29425 516 ft 11 kts 297°
2026-05-04 13:44 57.67450 12.29329 516 ft 13 kts 296°
2026-05-04 13:44 57.67460 12.29253 515 ft 0 kts 266°
2026-05-04 13:46 57.67460 12.29240 515 ft 3 kts 266°
2026-05-04 13:46 57.67457 12.29169 514 ft 8 kts 265°
2026-05-04 13:46 57.67439 12.29051 515 ft 10 kts 241°
2026-05-04 13:47 57.67402 12.28998 515 ft 0 kts 205°
2026-05-04 13:47 57.67385 12.28983 515 ft 13 kts 205°
2026-05-04 13:47 57.67075 12.28698 514 ft 84 kts 207°
2026-05-04 13:47 57.66380 12.28061 511 ft 136 kts 206°
2026-05-04 13:48 57.65427 12.27189 726 ft 163 kts 209°
2026-05-04 13:48 57.64373 12.26227 1280 ft 175 kts 211°
2026-05-04 13:48 57.63210 12.25162 1668 ft 197 kts 211°
2026-05-04 13:48 57.61895 12.23961 2017 ft 223 kts 210°
2026-05-04 13:49 57.60356 12.22934 2540 ft 248 kts 196°
2026-05-04 13:49 57.58594 12.22510 3349 ft 260 kts 188°
2026-05-04 13:49 57.56761 12.22330 4316 ft 266 kts 187°
2026-05-04 13:49 57.54914 12.22460 5283 ft 275 kts 175°
2026-05-04 13:50 57.53016 12.23082 6246 ft 278 kts 175°
2026-05-04 13:50 57.51101 12.23694 7139 ft 281 kts 176°
2026-05-04 13:50 57.49161 12.24283 8039 ft 284 kts 177°
2026-05-04 13:50 57.47202 12.24852 8922 ft 287 kts 177°
2026-05-04 13:51 57.45216 12.25413 9814 ft 289 kts 178°
2026-05-04 13:51 57.43196 12.25963 10373 ft 304 kts 178°
2026-05-04 13:51 57.41021 12.26529 10612 ft 327 kts 178°
2026-05-04 13:51 57.38724 12.27132 11133 ft 337 kts 178°
2026-05-04 13:52 57.34017 12.28410 12590 ft 346 kts 178°
2026-05-04 13:52 57.31616 12.29066 13331 ft 349 kts 178°
2026-05-04 13:52 57.29202 12.29717 14011 ft 353 kts 178°
2026-05-04 13:53 57.26758 12.30369 14645 ft 357 kts 178°
2026-05-04 13:53 57.24289 12.31027 15266 ft 361 kts 178°
2026-05-04 13:53 57.21792 12.31692 15871 ft 364 kts 178°
2026-05-04 13:54 57.16750 12.33033 17134 ft 372 kts 178°
2026-05-04 13:54 57.14178 12.33717 17762 ft 375 kts 179°
2026-05-04 13:54 57.08958 12.35065 18857 ft 383 kts 179°
2026-05-04 13:55 57.06308 12.35723 19010 ft 383 kts 179°
2026-05-04 13:55 57.00908 12.37029 19053 ft 394 kts 179°
2026-05-04 13:55 56.98191 12.37695 19059 ft 394 kts 179°
2026-05-04 13:56 56.95467 12.38372 19059 ft 395 kts 179°
2026-05-04 13:56 56.92748 12.39055 19064 ft 395 kts 179°
2026-05-04 13:56 56.87302 12.40415 19067 ft 394 kts 179°
2026-05-04 13:57 56.84595 12.41091 19082 ft 394 kts 177°
2026-05-04 13:57 56.81900 12.42197 19086 ft 398 kts 172°
2026-05-04 13:58 56.73859 12.46074 19081 ft 398 kts 171°
2026-05-04 13:58 56.68731 12.48608 18889 ft 371 kts 171°
2026-05-04 13:58 56.66255 12.49817 18522 ft 366 kts 172°
2026-05-04 13:59 56.63809 12.50989 18077 ft 362 kts 172°
2026-05-04 13:59 56.61376 12.52144 17588 ft 360 kts 172°
2026-05-04 13:59 56.56570 12.54428 16627 ft 354 kts 172°
2026-05-04 14:00 56.54190 12.55561 16157 ft 352 kts 172°
2026-05-04 14:00 56.49476 12.57808 15244 ft 347 kts 172°
2026-05-04 14:00 56.47150 12.58912 14773 ft 345 kts 171°
2026-05-04 14:01 56.44838 12.60011 14349 ft 342 kts 171°
2026-05-04 14:01 56.42543 12.61100 13929 ft 340 kts 171°
2026-05-04 14:01 56.37994 12.63246 13018 ft 335 kts 171°
2026-05-04 14:02 56.35748 12.64303 12550 ft 333 kts 171°
2026-05-04 14:02 56.33510 12.65358 12103 ft 331 kts 171°
2026-05-04 14:02 56.31290 12.66405 11662 ft 329 kts 171°
2026-05-04 14:02 56.29082 12.67447 11221 ft 327 kts 171°
2026-05-04 14:03 56.26882 12.68486 10804 ft 325 kts 171°
2026-05-04 14:03 56.24727 12.69500 10370 ft 323 kts 171°
2026-05-04 14:03 56.22547 12.70521 10005 ft 321 kts 171°
2026-05-04 14:03 56.20419 12.71518 9908 ft 311 kts 171°
2026-05-04 14:04 56.16393 12.73410 9923 ft 293 kts 171°
2026-05-04 14:04 56.14419 12.74324 9927 ft 292 kts 171°
2026-05-04 14:04 56.12458 12.75231 9928 ft 292 kts 171°
2026-05-04 14:05 56.08524 12.77058 9931 ft 292 kts 171°
2026-05-04 14:05 56.06567 12.77969 9785 ft 290 kts 171°
2026-05-04 14:05 56.04621 12.78874 9424 ft 289 kts 171°
2026-05-04 14:06 56.02679 12.79778 9061 ft 288 kts 171°
2026-05-04 14:06 56.00740 12.80676 8712 ft 286 kts 171°
2026-05-04 14:06 55.98816 12.81566 8386 ft 285 kts 171°
2026-05-04 14:06 55.96897 12.82450 8051 ft 284 kts 171°
2026-05-04 14:07 55.95006 12.83321 7717 ft 283 kts 171°
2026-05-04 14:07 55.93074 12.84211 7383 ft 282 kts 171°
2026-05-04 14:07 55.91204 12.85074 7058 ft 281 kts 171°
2026-05-04 14:07 55.89317 12.85944 6732 ft 279 kts 171°
2026-05-04 14:08 55.87436 12.86813 6427 ft 278 kts 171°
2026-05-04 14:08 55.85571 12.87675 6136 ft 276 kts 171°
2026-05-04 14:08 55.83731 12.88525 6023 ft 267 kts 171°
2026-05-04 14:08 55.81961 12.89343 5873 ft 259 kts 171°
2026-05-04 14:09 55.78578 12.90467 5617 ft 231 kts 195°
2026-05-04 14:09 55.77165 12.89501 5486 ft 210 kts 221°
2026-05-04 14:10 55.75021 12.86202 5057 ft 198 kts 227°
2026-05-04 14:10 55.74011 12.84629 4922 ft 189 kts 227°
2026-05-04 14:10 55.73038 12.83113 4784 ft 180 kts 227°
2026-05-04 14:10 55.72123 12.81692 4660 ft 170 kts 227°
2026-05-04 14:11 55.71259 12.80347 4512 ft 161 kts 227°
2026-05-04 14:11 55.69503 12.77716 3784 ft 170 kts 225°
2026-05-04 14:11 55.68563 12.76404 3439 ft 174 kts 224°
2026-05-04 14:12 55.67606 12.75019 2959 ft 183 kts 226°
2026-05-04 14:12 55.66650 12.73494 2363 ft 187 kts 228°
2026-05-04 14:12 55.64745 12.70336 1259 ft 185 kts 228°
2026-05-04 14:13 55.63809 12.68811 730 ft 182 kts 225°
2026-05-04 14:13 55.62875 12.67317 261 ft 179 kts 225°
2026-05-04 14:13 55.61983 12.65911 26 ft 165 kts 225°
2026-05-04 14:13 55.61238 12.64732 23 ft 99 kts 220°
2026-05-04 14:14 55.61003 12.64376 20 ft 31 kts 222°
2026-05-04 14:14 55.60691 12.63853 29 ft 14 kts 255°
2026-05-04 14:14 55.60739 12.63685 24 ft 11 kts 310°
2026-05-04 14:15 55.60746 12.63671 25 ft 0 kts 310°
2026-05-04 14:22 55.60753 12.63657 24 ft 0 kts 311°
2026-05-04 14:24 55.60770 12.63626 25 ft 2 kts 316°
2026-05-04 14:24 55.60783 12.63605 23 ft 6 kts 322°
2026-05-04 14:24 55.60849 12.63612 23 ft 13 kts 32°
2026-05-04 14:25 55.60940 12.63719 21 ft 18 kts 33°
2026-05-04 14:25 55.61202 12.64020 16 ft 26 kts 33°
2026-05-04 14:25 55.61358 12.64203 16 ft 28 kts 33°
2026-05-04 14:26 55.61523 12.64391 18 ft 28 kts 32°
2026-05-04 14:26 55.61673 12.64563 19 ft 23 kts 33°
2026-05-04 14:26 55.61815 12.64727 19 ft 26 kts 33°
2026-05-04 14:26 55.61942 12.64873 17 ft 9 kts 32°
2026-05-04 14:27 55.61953 12.64886 18 ft 0 kts 33°
2026-05-04 14:27 55.61955 12.64888 18 ft 3 kts 33°
2026-05-04 14:28 55.61988 12.64925 20 ft 7 kts 32°
2026-05-04 14:28 55.62043 12.64989 21 ft 12 kts 33°
2026-05-04 14:28 55.62124 12.65082 25 ft 12 kts 33°
2026-05-04 14:28 55.62202 12.65039 24 ft 16 kts 307°
2026-05-04 14:29 55.62343 12.64783 24 ft 8 kts 358°